User: anonymous
Location: Brno
(49.2000°N, 16.6330°E)
Time: 10:04:00
(UTC+02:00)
Language:

Cosmos 2227 - Orbit

View from above orbital plane
View from above orbital plane
View from above satellite
View from above satellite

Ground track
Ground track

The orbit data is extracted from the following two-line orbital elements,

1 22284U 92093A   14264.16212219  .00000229  00000-0  14774-3 0  9801
2 22284 070.9818 171.7527 0020237 249.9944 260.4197 14.13188279121364
Epoch (UTC): 21 September 2014 03:53:27
Eccentricity: 0.0020237
inclination: 70.9818°
perigee height: 834 km
apogee height: 863 km
right ascension of ascending node: 171.7527°
argument of perigee: 249.9944°
revolutions per day: 14.13188279
mean anomaly at epoch: 260.4197°
orbit number at epoch: 12136

The dashed part of the orbit path shows where the satellite is in the earth's shadow,  

DLR